Weather in Tiraspol

Moldova     46°50′09″N   29°36′23″E
temp.,
°C
wind,
m/s
gust,
m/s
humid.,
%
clouds,
%
prec.,
mm/h
press.,
hPa
HPBL,
m
12 april, mon
mon1200:00+9n225079 0.0 102511
03:00+8nnw225712 0.0 102417
06:00+6nnw336137 0.0 102427
09:00+11n354936 0.0 1023313
12:00+15n343797 0.0 10221186
15:00+18n3433100 0.0 10211613
18:00+17nne3336100 0.0 10201697
21:00+10ese4870100 0.0 1021187
13 april, tue
tue1300:00+8ese227297 0.0 102115
03:00+8nne1172100 0.0 102010
06:00+7ne1174100 0.0 102010
09:00+10ne1268100 0.0 1020179
12:00+11ese1270100 0.0 1019251
15:00+12se1267100 0.0 1019349
18:00+12se3568100 0.0 1017418
21:00+9se3682100 0.0 1018291
14 april, wed
wed1400:00+9se3688100 0.4 1017339
03:00+8se3790100 0.8 1016425
06:00+8se3894100 0.3 1016374
09:00+9se4787100 0.9 1016430
12:00+13se6760100 0.0 10151338
15:00+13se7757100 0.0 10141414
18:00+11se6770100 0.0 1013783
21:00+8e4790100 1.3 1014496
15 april, thu
thu1500:00+8e3692100 1.1 1013469
03:00+9e2496100 1.8 1012332
06:00+9e2495100 0.3 1012277
09:00+9ne2393100 0.6 1013262
12:00+9n2390100 0.5 1013326
15:00+8nw6891100 2.7 1014463
18:00+7nw61090100 2.3 1014401
21:00+7nw61089100 3.4 1015440
16 april, fri
fri1600:00+6nw61090100 0.8 1015465
03:00+6wnw61192100 2.8 1015463
06:00+5nw61190100 1.1 1014470
09:00+5wnw71187100 1.2 1015524
12:00+5wnw71187100 0.8 1016665
15:00+5nw71191100 1.9 1016807
18:00+6wnw71289100 2.6 1016895
21:00+5wnw71393100 5.5 1017619